GW4284 Weather Reports


Display with metric or nautical units.
time (UTC)temp
F
wind
direction
speed
MPH
gust
MPH
rain 1hr
in
rain 24hr
in
rain mn
in
humidity
%
barometer
mb
20260505061806 53 160 2.0 2.0 0.00 0.00 0.00 92 994.2
20260505061305 53 182 2.0 3.0 0.00 0.00 0.00 92 994.2
20260505060802 54 191 1.0 1.0 0.00 0.00 0.00 91 994.0
20260505060259 54 167 2.0 2.0 0.00 0.00 0.00 90 993.9
20260505055754 54 174 3.0 3.0 0.00 0.00 0.00 90 994.0
20260505055250 55 173 1.0 2.0 0.00 0.00 0.00 89 994.0
20260505054748 55 176 0.0 0.0 0.00 0.00 0.00 89 993.9
20260505054245 55 171 1.0 1.0 0.00 0.00 0.00 88 993.8
20260505053744 55 149 1.0 1.0 0.00 0.00 0.00 88 993.9
20260505053240 55 213 1.0 1.0 0.00 0.00 0.00 87 993.8
20260505052737 56 73 0.0 0.0 0.00 0.00 0.00 88 993.9
20260505052234 56 298 1.0 1.0 0.00 0.00 0.00 87 993.9
20260505051731 56 299 0.0 1.0 0.00 0.00 0.00 87 993.9
20260505051229 56 301 1.0 1.0 0.00 0.00 0.00 87 993.8
20260505050727 57 302 0.0 1.0 0.00 0.00 0.00 86 993.6
20260505050225 57 307 2.0 2.0 0.00 0.00 0.00 85 993.5
20260505041654 59 311 2.0 2.0 0.00 0.00 0.00 82 993.3
20260505041152 60 288 2.0 2.0 0.00 0.00 0.00 80 993.0
20260505040649 60 316 4.0 5.0 0.00 0.00 0.00 80 993.2
20260505040146 61 308 5.0 6.0 0.00 0.00 0.00 78 993.2
20260505035642 61 312 3.0 5.0 0.00 0.00 0.00 79 993.0
20260505035139 61 320 6.0 7.0 0.00 0.00 0.00 78 993.0
20260505034635 61 277 5.0 7.0 0.00 0.00 0.00 78 993.1
20260505034132 62 304 3.0 3.0 0.00 0.00 0.00 77 992.7
20260505033628 62 330 3.0 3.0 0.00 0.00 0.00 76 992.8
20260505033127 63 197 1.0 1.0 0.00 0.00 0.00 75 992.7
20260505032625 63 264 3.0 3.0 0.00 0.00 0.00 73 992.8
20260505032121 63 312 5.0 7.0 0.00 0.00 0.00 72 992.5
20260505031618 64 308 5.0 7.0 0.00 0.00 0.00 72 992.5
20260505031114 64 309 5.0 6.0 0.00 0.00 0.00 70 992.6
20260505030612 65 320 7.0 7.0 0.00 0.00 0.00 69 992.5
20260505030107 65 271 4.0 6.0 0.00 0.00 0.00 70 992.4
20260505025603 65 83 1.0 2.0 0.00 0.00 0.00 68 992.5
20260505025102 66 299 5.0 7.0 0.00 0.00 0.00 66 992.3
20260505024559 66 289 5.0 7.0 0.00 0.00 0.00 66 992.1
20260505024056 67 327 3.0 5.0 0.00 0.00 0.00 66 992.2
20260505023553 67 327 3.0 3.0 0.00 0.00 0.00 63 992.0
20260505023051 67 277 6.0 8.0 0.00 0.00 0.00 63 992.2
20260505022548 68 280 5.0 7.0 0.00 0.00 0.00 64 992.1
20260505022045 68 347 1.0 2.0 0.00 0.00 0.00 65 992.2
20260505021541 69 253 3.0 5.0 0.00 0.00 0.00 64 992.1
20260505021033 69 330 4.0 5.0 0.00 0.00 0.00 67 992.1
20260505020533 69 295 1.0 2.0 0.00 0.00 0.00 67 992.4
20260505020030 69 14 1.0 2.0 0.00 0.00 0.00 67 992.0
20260505015527 70 87 1.0 1.0 0.00 0.00 0.00 68 992.0
20260505015024 70 208 2.0 3.0 0.00 0.00 0.00 68 992.1
20260505014520 70 334 3.0 3.0 0.00 0.00 0.00 70 991.9
20260505014018 70 345 2.0 2.0 0.00 0.00 0.00 69 991.9
20260505013515 71 283 1.0 1.0 0.00 0.00 0.00 68 991.9
20260505013012 71 286 4.0 5.0 0.00 0.00 0.00 65 992.0
20260505012510 71 301 1.0 1.0 0.00 0.00 0.00 66 992.1
20260505012007 71 246 3.0 3.0 0.00 0.00 0.00 65 992.1
20260505011503 72 203 0.0 1.0 0.00 0.00 0.00 65 992.3
20260505011000 72 319 1.0 2.0 0.00 0.00 0.00 63 992.0
20260505010455 72 308 1.0 1.0 0.00 0.00 0.00 64 992.0
20260505005951 73 312 0.0 1.0 0.00 0.00 0.00 65 992.3
20260505005448 72 183 2.0 2.0 0.00 0.00 0.00 67 992.3
20260505004946 72 253 5.0 7.0 0.00 0.00 0.00 63 992.2
20260505004443 72 210 1.0 2.0 0.00 0.00 0.00 65 992.2
20260505003940 72 218 0.0 1.0 0.00 0.00 0.00 64 992.4
20260505003437 73 240 2.0 2.0 0.00 0.00 0.00 66 992.6
20260505002933 73 297 4.0 6.0 0.00 0.00 0.00 65 992.6
20260505002429 74 173 1.0 1.0 0.00 0.00 0.00 65 992.5
20260505001928 73 241 0.0 1.0 0.00 0.00 0.00 64 992.4
20260505001425 73 3 2.0 2.0 0.00 0.00 0.00 67 992.4
20260505000922 73 292 1.0 1.0 0.00 0.00 0.00 64 992.5
20260505000420 73 298 1.0 2.0 0.00 0.00 0.00 63 992.6
20260504235916 73 175 3.0 5.0 0.00 0.00 0.00 64 992.4
20260504235414 74 249 2.0 2.0 0.00 0.00 0.00 63 992.7
20260504234910 73 272 3.0 3.0 0.00 0.00 0.00 63 992.7
20260504234407 73 311 2.0 5.0 0.00 0.00 0.00 65 992.4
20260504233904 73 172 2.0 2.0 0.00 0.00 0.00 63 992.6
20260504233359 73 199 2.0 3.0 0.00 0.00 0.00 65 992.6
20260504232856 73 232 2.0 2.0 0.00 0.00 0.00 63 992.6
20260504232353 73 176 1.0 2.0 0.00 0.00 0.00 63 992.7
20260504231850 73 213 3.0 3.0 0.00 0.00 0.00 65 992.6
20260504231347 73 303 1.0 1.0 0.00 0.00 0.00 68 992.6
20260504230843 74 268 2.0 2.0 0.00 0.00 0.00 63 992.9
20260504230341 73 193 1.0 1.0 0.00 0.00 0.00 67 992.7
20260504225839 72 242 3.0 3.0 0.00 0.00 0.00 68 992.8
20260504225335 72 132 3.0 3.0 0.00 0.00 0.00 64 992.9
20260504224833 71 189 2.0 2.0 0.00 0.00 0.00 65 992.8
20260504224330 71 160 5.0 6.0 0.00 0.00 0.00 67 993.2
20260504223826 72 174 5.0 7.0 0.00 0.00 0.00 66 993.0
20260504223322 72 231 3.0 5.0 0.00 0.00 0.00 64 993.3
20260504222819 72 252 1.0 2.0 0.00 0.00 0.00 64 993.3
20260504222316 71 162 5.0 6.0 0.00 0.00 0.00 66 993.3
20260504221814 70 145 5.0 6.0 0.00 0.00 0.00 66 993.3
20260504221310 72 183 6.0 9.0 0.00 0.00 0.00 65 993.5
20260504220807 72 242 1.0 2.0 0.00 0.00 0.00 66 993.6
20260504220304 71 75 0.0 1.0 0.00 0.00 0.00 68 993.4
20260504215802 70 233 3.0 5.0 0.00 0.00 0.00 69 993.3
20260504215258 70 207 5.0 6.0 0.00 0.00 0.00 67 993.7
20260504214754 71 217 3.0 3.0 0.00 0.00 0.00 66 993.7
20260504214250 70 148 4.0 5.0 0.00 0.00 0.00 65 993.8
20260504213747 70 165 4.0 5.0 0.00 0.00 0.00 66 993.9
20260504213243 70 162 3.0 3.0 0.00 0.00 0.00 66 993.7
20260504212741 69 209 2.0 2.0 0.00 0.00 0.00 71 993.7
20260504212237 69 163 1.0 2.0 0.00 0.00 0.00 68 994.0
20260504211735 69 19 3.0 3.0 0.00 0.00 0.00 69 994.0
20260504211230 69 113 4.0 5.0 0.00 0.00 0.00 68 993.9
20260504210728 68 293 1.0 1.0 0.00 0.00 0.00 71 994.0
20260504210225 68 324 3.0 3.0 0.00 0.00 0.00 67 994.2
20260504205722 67 136 2.0 2.0 0.00 0.00 0.00 70 994.1
20260504205220 68 173 5.0 8.0 0.00 0.00 0.00 68 994.4
20260504204718 68 284 1.0 1.0 0.00 0.00 0.00 68 994.4
20260504204216 68 141 1.0 3.0 0.00 0.00 0.00 72 994.4
20260504203715 67 177 1.0 2.0 0.00 0.00 0.00 71 994.4
20260504203207 66 211 2.0 2.0 0.00 0.00 0.00 71 994.5
20260504202706 66 122 3.0 5.0 0.00 0.00 0.00 71 994.6
20260504202204 66 183 5.0 7.0 0.00 0.00 0.00 74 994.6
20260504201701 67 216 3.0 3.0 0.00 0.00 0.00 70 994.7
20260504201158 67 328 0.0 1.0 0.00 0.00 0.00 72 994.6
20260504200655 66 193 5.0 6.0 0.00 0.00 0.00 73 994.8
20260504200152 66 172 0.0 1.0 0.00 0.00 0.00 73 994.8
20260504195648 64 166 3.0 3.0 0.00 0.00 0.00 76 994.9
20260504195144 65 166 8.0 9.0 0.00 0.00 0.00 72 994.8
20260504194641 64 135 4.0 6.0 0.00 0.00 0.00 75 995.0
20260504194137 64 160 6.0 7.0 0.00 0.00 0.00 74 994.7
20260504193633 64 146 4.0 6.0 0.00 0.00 0.00 75 994.9
20260504193132 64 162 3.0 5.0 0.00 0.00 0.00 75 995.0
20260504192629 64 224 0.0 1.0 0.00 0.00 0.00 77 995.0
20260504192127 65 105 2.0 3.0 0.00 0.00 0.00 77 994.8
20260504191625 64 313 2.0 2.0 0.00 0.00 0.00 78 995.0
20260504191121 64 137 3.0 5.0 0.00 0.00 0.00 75 995.1
20260504190617 64 211 2.0 2.0 0.00 0.00 0.00 73 995.1
20260504190114 64 95 1.0 1.0 0.00 0.00 0.00 75 995.3
20260504185611 63 130 1.0 1.0 0.00 0.00 0.00 75 995.3
20260504185107 63 55 1.0 2.0 0.00 0.00 0.00 77 995.3
20260504184603 63 106 3.0 6.0 0.00 0.00 0.00 78 995.3
20260504184058 62 159 3.0 3.0 0.00 0.00 0.00 79 995.3
20260504183556 62 141 1.0 1.0 0.00 0.00 0.00 77 995.4
20260504183054 62 236 2.0 2.0 0.00 0.00 0.00 80 995.2
20260504182550 63 189 6.0 6.0 0.00 0.00 0.00 76 995.2
20260504182048 63 238 4.0 5.0 0.00 0.00 0.00 75 995.4
20260504181545 62 196 2.0 3.0 0.00 0.00 0.00 79 995.4
20260504181043 61 157 5.0 5.0 0.00 0.00 0.00 78 995.2
20260504180542 61 167 3.0 6.0 0.00 0.00 0.00 77 995.4
20260504180040 62 161 4.0 6.0 0.00 0.00 0.00 79 995.1
20260504175537 60 150 5.0 7.0 0.00 0.00 0.00 80 995.2
20260504175034 61 162 2.0 2.0 0.00 0.00 0.00 78 995.2
20260504174532 60 177 1.0 2.0 0.00 0.00 0.00 80 995.2
20260504174028 61 166 4.0 5.0 0.00 0.00 0.00 79 995.4
20260504173525 60 151 6.0 7.0 0.00 0.00 0.00 80 995.2
20260504173022 60 130 3.0 3.0 0.00 0.00 0.00 80 995.2
20260504172519 60 145 5.0 6.0 0.00 0.00 0.00 78 995.1
20260504172015 59 192 4.0 7.0 0.00 0.00 0.00 83 995.4
20260504171512 59 237 2.0 2.0 0.00 0.00 0.00 83 995.3
20260504171009 59 191 3.0 5.0 0.00 0.00 0.00 82 995.2
20260504170505 59 198 6.0 7.0 0.00 0.00 0.00 81 995.2
20260504160425 59 227 3.0 5.0 0.00 0.00 0.00 82 994.9
20260504150849 57 147 5.0 7.0 0.00 0.00 0.00 85 994.5
20260504150345 57 191 4.0 5.0 0.00 0.00 0.00 84 994.4
20260504141316 56 189 1.0 1.0 0.00 0.00 0.00 86 994.1
20260504140812 56 160 1.0 1.0 0.00 0.00 0.00 86 994.0
20260504140308 56 123 2.0 5.0 0.00 0.00 0.00 85 993.9
20260504130737 56 157 2.0 2.0 0.00 0.00 0.00 85 992.9
20260504130232 56 155 2.0 2.0 0.00 0.00 0.00 84 992.8
20260504120156 59 181 4.0 5.0 0.00 0.00 0.00 76 992.0
20260504110624 62 162 1.0 1.0 0.00 0.00 0.00 66 991.3
20260504110120 62 163 1.0 1.0 0.00 0.00 0.00 65 991.2
20260504100545 59 61 2.0 2.0 0.00 0.00 0.00 74 991.1
20260504081939 65 345 0.0 0.0 0.00 0.00 0.00 63 990.6
20260504081436 64 28 3.0 3.0 0.00 0.00 0.00 64 990.5
20260504080932 64 56 1.0 1.0 0.00 0.00 0.00 64 990.4
20260504080429 64 10 1.0 1.0 0.00 0.00 0.00 63 990.4
20260504070356 65 49 0.0 0.0 0.00 0.00 0.00 61 990.2